Showing default

CENTISPACE-1 S16, 62585

Orbit data source: Space-Track

CENTISPACE-1 S16, 62585 is a payload satellite owned by Centispace (CN) in LEO that was launched on Mon, 13 Jan 2025 UTC via a JIELONG-3 launch vehicle from the Yellow Sea Launch Area, China (YSLA). Payload-class satellites include a variety of spacecraft equipped with specific instruments for various scientific and technological missions. These include communications satellites like Starlink; space stations such as the ISS; scientific satellites like the Hubble; Earth observation satellites from companies like Planet Labs, Umbra, and HawkEye 360; GPS; miniature CubeSats for education and research; and military/defense satellites.

Loading next visibility...
Identifier
62585, 2025-007L
Orbit
LEO
Last TLE update
8 hours ago
Origin
Manufacturer
HITSAT
Mission
Operational Commercial Nav/Com
Bus & Motor
WK01H, Unknown motor
Mass
140 kg wet, 140 kg dry
Launch date (UTC)
2025-01-13 (6 months ago)
Launch vehicle
JIELONG-3
Launch site
Yellow Sea Launch Area, China (YSLA)
Object type
Payload
Rocket body
Debris
Shape & HBR
Box + 2 Pan, 2 m
Radar Cross Section
0.833 m², Medium (>0.1 m² and < 1m²)

Expand to show TLE details & history

TLE from 8 hours ago
0 CENTISPACE-1 S16
1 62585U 25007L   25191.76175059  .00000517  00000-0  12417-3 0  9999
2 62585  54.9812 122.1411 0010878 352.3321   7.7507 14.67805723 26313
Epoch: 2025-07-10T18:16Z
TLE epoch observation values (Epoch: 2025-07-10T18:16:55.25Z)
Latitude
-0.00005°
Longitude
-81.01253°
Altitude
661.551 km
Speed
7.532 km/s
True Right ascension
08h 08m 33s
True Declination
0° 00' 00"
Sunlit
Object was in daylight at epoch
Visualization orbit readout
Latitude
-5.13968°
Longitude
-85.97539°
Altitude
662.291 km
Speed
7.531 km/s
Apparent Right ascension
05h 47m 20s
Apparent Declination
-26° 28' 04"
Sunlit
Object is in daylight
Visualization observer readout
Local Sidereal Time
14:42:06
Azimuth
274.85° WNW
Elevation
-49.486°
Doppler factor
1
Orbital elements
Apogee altitude
675.713 km
Perigee altitude
660.383 km
Semi-major axis
7,046.185 km
Eccentricity
0.00109
Inclination
54.9812°
RAAN
122.1411°
Arg. of periapsis
352.3321°
True anomaly
Unknown
Mean anomaly
7.7507°
Eccentric anomaly
Unknown
Mean motion
3.66954 °/min
Orbital period
98.1 mins
BSTAR
0.00012417
Loading maneuver chart data...
Loading SW <> Apogee altitude chart data...
Loading historical data...
Loading historical data...
Loading historical data...
Loading historical data...
Loading historical data...
Loading historical data...
Loading historical data...

CENTISPACE-1 S16 Visibility forecast

Observer location: undefined°, undefined°

Span
Click to sort rows by Start time (UTC) header in descending order
Start Az.
Max El. time (UTC)
Max El. Az.
Max El.
End time (UTC)
End Az.
5 mins2025-07-11 02:52:32.531Z337.197° NNW2025-07-11 02:55:32.531Z16.701° NNE15.637°2025-07-11 02:57:32.531Z44.532° NE
7 mins2025-07-11 04:35:32.531Z331.327° NNW2025-07-11 04:38:32.531Z36.97° NE35.675°2025-07-11 04:42:32.531Z107.477° ESE
7 mins2025-07-11 06:17:32.531Z283.669° WNW2025-07-11 06:20:32.531Z229.832° WSW26.72°2025-07-11 06:24:32.531Z172.786° S
5 mins2025-07-11 20:35:32.531Z154.59° SSE2025-07-11 20:37:32.531Z120.295° SE20.387°2025-07-11 20:40:32.531Z77.844° E
8 mins2025-07-11 22:15:32.531Z244.504° WSW2025-07-11 22:18:32.531Z293.542° NW39.686°2025-07-11 22:23:32.531Z40.645° NE
4 mins2025-07-12 00:00:32.531Z320.094° NNW2025-07-12 00:01:32.531Z335.521° NNW17.159°2025-07-12 00:04:32.531Z18.571° NNE
|